Time,TemperatureF,DewpointF,PressureIn,WindDirection,WindDirectionDegrees,WindSpeedMPH,WindSpeedGustMPH,Humidity,HourlyPrecipIn,Conditions,Clouds,dailyrainin,SolarRadiationWatts/m^2,SoftwareType,DateUTC
2013-07-06 00:12:00,66.0,53.0,-100.00,South,179,7.0,11.0,63,0.02,,,-99.99,0.000000,,2013-07-06 06:12:00,
2013-07-06 00:22:00,66.0,53.0,-100.00,South,179,7.0,11.0,63,0.02,,,-99.99,0.000000,,2013-07-06 06:22:00,
2013-07-06 00:33:00,66.0,53.0,-100.00,South,179,7.0,11.0,63,0.02,,,-99.99,0.000000,,2013-07-06 06:33:00,
2013-07-06 00:43:00,66.0,53.0,-100.00,South,179,7.0,11.0,63,0.02,,,-99.99,0.000000,,2013-07-06 06:43:00,
2013-07-06 02:21:00,72.0,48.0,-100.00,South,171,11.0,19.0,43,0.00,,,-99.99,0.000000,,2013-07-06 08:21:00,
2013-07-06 02:43:00,68.0,54.0,-100.00,WSW,253,8.0,12.0,61,0.00,,,-99.99,0.000000,,2013-07-06 08:43:00,
2013-07-06 03:22:00,65.0,55.0,-100.00,South,190,4.0,6.0,70,0.00,,,-99.99,0.000000,,2013-07-06 09:22:00,
2013-07-06 04:11:00,65.0,55.0,-100.00,SE,133,5.0,6.0,69,0.00,,,-99.99,0.000000,,2013-07-06 10:11:00,
2013-07-06 04:22:00,65.0,55.0,-100.00,SSE,156,3.0,5.0,69,0.00,,,-99.99,0.000000,,2013-07-06 10:22:00,
2013-07-06 04:42:00,64.0,55.0,-100.00,SE,141,3.0,5.0,73,0.00,,,-99.99,0.000000,,2013-07-06 10:42:00,
2013-07-06 04:50:00,62.0,55.0,-100.00,South,177,5.0,6.0,76,0.00,,,-99.99,0.000000,,2013-07-06 10:50:00,
2013-07-06 05:11:00,62.0,55.0,-100.00,South,177,5.0,6.0,76,0.00,,,-99.99,0.000000,,2013-07-06 11:11:00,
2013-07-06 05:21:00,62.0,55.0,-100.00,South,177,5.0,6.0,76,0.00,,,-99.99,0.000000,,2013-07-06 11:21:00,
2013-07-06 05:32:00,62.0,55.0,-100.00,South,177,5.0,6.0,76,0.00,,,-99.99,0.000000,,2013-07-06 11:32:00,
2013-07-06 05:42:00,62.0,55.0,-100.00,South,177,5.0,6.0,76,0.00,,,-99.99,0.000000,,2013-07-06 11:42:00,
2013-07-06 06:52:00,63.0,55.0,-100.00,ESE,110,1.0,4.0,75,0.00,,,-99.99,13.000000,,2013-07-06 12:52:00,
2013-07-06 07:01:00,63.0,55.0,-100.00,ESE,110,1.0,4.0,75,0.00,,,-99.99,13.000000,,2013-07-06 13:01:00,
2013-07-06 07:11:00,64.0,55.0,-100.00,WSW,248,2.0,5.0,73,0.00,,,-99.99,12.000000,,2013-07-06 13:11:00,
2013-07-06 07:22:00,64.0,54.0,-100.00,SSW,196,3.0,6.0,69,0.00,,,-99.99,12.000000,,2013-07-06 13:22:00,
2013-07-06 07:33:00,65.0,54.0,-100.00,West,266,2.0,5.0,68,0.00,,,-99.99,12.000000,,2013-07-06 13:33:00,
2013-07-06 07:43:00,65.0,55.0,-100.00,SE,145,4.0,5.0,69,0.00,,,-99.99,12.000000,,2013-07-06 13:43:00,
2013-07-06 07:52:00,65.0,56.0,-100.00,SSE,161,4.0,6.0,73,0.00,,,-99.99,11.000000,,2013-07-06 13:52:00,
2013-07-06 08:11:00,63.0,57.0,-100.00,ESE,103,5.0,7.0,78,0.00,,,-99.99,12.000000,,2013-07-06 14:11:00,
2013-07-06 08:34:00,64.0,57.0,-100.00,WSW,244,4.0,7.0,78,0.00,,,-99.99,66.000000,,2013-07-06 14:34:00,
2013-07-06 08:42:00,69.0,54.0,-100.00,SSE,157,6.0,10.0,58,0.00,,,-99.99,123.000000,,2013-07-06 14:42:00,
2013-07-06 08:53:00,68.0,53.0,-100.00,SE,145,9.0,12.0,59,0.00,,,-99.99,141.000000,,2013-07-06 14:53:00,
2013-07-06 09:22:00,73.0,54.0,-100.00,SSW,196,7.0,10.0,51,0.00,,,-99.99,256.000000,,2013-07-06 15:22:00,
2013-07-06 09:52:00,73.0,57.0,-100.00,WSW,250,6.0,12.0,57,0.00,,,-99.99,640.000000,,2013-07-06 15:52:00,
2013-07-06 10:12:00,74.0,57.0,-100.00,West,268,7.0,9.0,56,0.00,,,-99.99,570.000000,,2013-07-06 16:12:00,
2013-07-06 10:22:00,74.0,57.0,-100.00,West,268,7.0,9.0,56,0.00,,,-99.99,570.000000,,2013-07-06 16:22:00,
2013-07-06 10:35:00,74.0,57.0,-100.00,West,268,7.0,9.0,56,0.00,,,-99.99,570.000000,,2013-07-06 16:35:00,
2013-07-06 11:57:00,76.0,57.0,-100.00,SSW,204,1.0,3.0,51,0.00,,,-99.99,644.000000,,2013-07-06 17:57:00,
2013-07-06 12:45:00,80.0,55.0,-100.00,West,266,3.0,6.0,43,0.00,,,-99.99,1092.000000,,2013-07-06 18:45:00,
2013-07-06 12:55:00,81.0,56.0,-100.00,SSE,152,4.0,7.0,43,0.00,,,-99.99,857.000000,,2013-07-06 18:55:00,
2013-07-06 13:54:00,83.0,54.0,-100.00,ESE,108,5.0,8.0,37,0.00,,,-99.99,978.000000,,2013-07-06 19:54:00,
2013-07-06 14:13:00,83.0,56.0,-100.00,SE,136,4.0,6.0,40,0.00,,,-99.99,823.000000,,2013-07-06 20:13:00,
2013-07-06 14:24:00,84.0,60.0,-100.00,SE,138,4.0,7.0,45,0.00,,,-99.99,854.000000,,2013-07-06 20:24:00,
2013-07-06 14:36:00,84.0,57.0,-100.00,WSW,244,4.0,7.0,40,0.00,,,-99.99,899.000000,,2013-07-06 20:36:00,
2013-07-06 14:45:00,85.0,60.0,-100.00,SW,224,4.0,7.0,43,0.00,,,-99.99,891.000000,,2013-07-06 20:45:00,
2013-07-06 14:55:00,86.0,58.0,-100.00,South,181,5.0,8.0,40,0.00,,,-99.99,876.000000,,2013-07-06 20:55:00,
2013-07-06 15:24:00,87.0,60.0,-100.00,WNW,303,4.0,6.0,40,0.00,,,-99.99,889.000000,,2013-07-06 21:24:00,
2013-07-06 15:36:00,87.0,60.0,-100.00,WNW,303,4.0,6.0,40,0.00,,,-99.99,889.000000,,2013-07-06 21:36:00,
2013-07-06 16:36:00,86.0,57.0,-100.00,SE,125,4.0,7.0,37,0.00,,,-99.99,439.000000,,2013-07-06 22:36:00,
2013-07-06 16:57:00,88.0,58.0,-100.00,ESE,111,3.0,5.0,37,0.00,,,-99.99,624.000000,,2013-07-06 22:57:00,
2013-07-06 17:04:00,88.0,58.0,-100.00,SSE,151,4.0,6.0,36,0.00,,,-99.99,756.000000,,2013-07-06 23:04:00,
2013-07-06 17:13:00,87.0,56.0,-100.00,SSW,201,2.0,4.0,35,0.00,,,-99.99,325.000000,,2013-07-06 23:13:00,
2013-07-06 17:36:00,86.0,49.0,-100.00,SSW,192,7.0,14.0,27,0.00,,,-99.99,509.000000,,2013-07-06 23:36:00,
2013-07-06 17:55:00,88.0,48.0,-100.00,South,177,7.0,12.0,25,0.00,,,-99.99,733.000000,,2013-07-06 23:55:00,
2013-07-06 18:03:00,88.0,48.0,-100.00,SSE,168,8.0,13.0,25,0.00,,,-99.99,526.000000,,2013-07-07 00:03:00,
2013-07-06 18:54:00,81.0,49.0,-100.00,South,180,15.0,21.0,33,0.00,,,-99.99,373.000000,,2013-07-07 00:54:00,
2013-07-06 19:22:00,80.0,48.0,-100.00,South,169,12.0,18.0,33,0.00,,,-99.99,77.000000,,2013-07-07 01:22:00,
2013-07-06 19:33:00,80.0,48.0,-100.00,South,174,12.0,19.0,33,0.00,,,-99.99,46.000000,,2013-07-07 01:33:00,
2013-07-06 19:43:00,79.0,48.0,-100.00,South,179,12.0,17.0,33,0.00,,,-99.99,18.000000,,2013-07-07 01:43:00,
2013-07-06 19:54:00,79.0,47.0,-100.00,SSW,198,12.0,19.0,33,0.00,,,-99.99,8.000000,,2013-07-07 01:54:00,
2013-07-06 20:02:00,79.0,49.0,-100.00,WNW,282,11.0,21.0,36,0.00,,,-99.99,12.000000,,2013-07-07 02:02:00,
2013-07-06 21:59:00,71.0,50.0,-100.00,South,174,8.0,13.0,48,0.00,,,-99.99,0.000000,,2013-07-07 03:59:00,
2013-07-06 22:01:00,71.0,50.0,-100.00,SSE,164,7.0,10.0,47,0.00,,,-99.99,0.000000,,2013-07-07 04:01:00,
2013-07-06 22:11:00,71.0,50.0,-100.00,South,169,7.0,10.0,48,0.00,,,-99.99,0.000000,,2013-07-07 04:11:00,
2013-07-06 22:21:00,72.0,50.0,-100.00,East,91,6.0,10.0,47,0.00,,,-99.99,0.000000,,2013-07-07 04:21:00,
2013-07-06 22:41:00,66.0,54.0,-100.00,WSW,243,3.0,6.0,64,0.00,,,-99.99,0.000000,,2013-07-07 04:41:00,
2013-07-06 22:51:00,66.0,54.0,-100.00,SSE,160,2.0,6.0,65,0.00,,,-99.99,0.000000,,2013-07-07 04:51:00,
2013-07-06 23:01:00,67.0,53.0,-100.00,East,94,4.0,7.0,61,0.00,,,-99.99,0.000000,,2013-07-07 05:01:00,
2013-07-06 23:11:00,67.0,54.0,-100.00,ESE,109,4.0,7.0,64,0.00,,,-99.99,0.000000,,2013-07-07 05:11:00,
2013-07-06 23:21:00,66.0,56.0,-100.00,SSE,152,3.0,7.0,69,0.00,,,-99.99,0.000000,,2013-07-07 05:21:00,
2013-07-06 23:31:00,65.0,54.0,-100.00,SSE,160,6.0,7.0,66,0.00,,,-99.99,0.000000,,2013-07-07 05:31:00,
2013-07-06 23:41:00,65.0,54.0,-100.00,South,173,6.0,7.0,67,0.00,,,-99.99,0.000000,,2013-07-07 05:41:00,
2013-07-06 23:51:00,66.0,53.0,-100.00,SSE,154,5.0,7.0,63,0.00,,,-99.99,0.000000,,2013-07-07 05:51:00,